Location: Chmeln�
(49.6483°N, 14.9871°E)
Time: 06:45:26
(UTC+00:00)

Lacrosse 5 rocket - Pass Details

Date: 21 January 2021
Orbit: 465 x 630 km, 57.0° (Epoch: 06 March)

Event Time Altitude Azimuth Distance (km) Brightness Sun altitude
Exits shadow 05:11:34 28° 282° (WNW) 971 2.0 -15.0°
Maximum altitude 05:13:16 50° 222° (SW) 642 1.4 -14.7°
Drops below altitude 10° 05:16:54 10° 146° (SE) 1,667 4.5 -14.1°
Sets 05:19:02 0° 141° (SE) 2,524 5.6 -13.8°
